Wahpeton, MN

10:04 PM CDT on October 20, 2019 (GMT -0500)
Stern

Weather History for KBWP - August, 2019

Change the Weather History Date:

Friday, August 30, 2019

  Actual Average (WUND) Record (WUND)
Temperature  
Mean Temperature 56 °F -  
Max Temperature 71 °F - - (-1)
Min Temperature 42 °F - - (-1)
Degree Days  
Heating Degree Days 8    
Growing Degree Days 6 (Base 50)    
Moisture  
Dew Point 44 °F    
Average Humidity 64    
Maximum Humidity 93    
Minimum Humidity 35    
Precipitation  
Precipitation 0.00 in - - ()
Sea Level Pressure  
Sea Level Pressure 30.18 in    
Wind  
Wind Speed 5 mph ()    
Max Wind Speed 10 mph    
Max Gust Speed 17 mph    
Visibility 10.0 miles    
Events      
Averages and records for this station are not official NWS values.
T = Trace of Precipitation, MM = Missing Value Source: Averaged Metar Reports

Daily Weather History Graph

Daily Weather History Graph

Search for Another Location

Airport or City:

Astronomy

Aug. 30, 2019 Rise Set
Actual Time 6:44 AM CDT 8:09 PM CDT
Civil Twilight 6:12 AM CDT 8:40 PM CDT
Nautical Twilight 5:35 AM CDT 9:17 PM CDT
Astronomical Twilight 4:54 AM CDT 9:58 PM CDT
Moon 6:43 AM CDT (8/30) 8:46 PM CDT (8/30)
Length of Visible Light 14h 27m
Length of Day
13h 25m
New Moon, 0% of the Moon is Illuminated
Aug 30
New Moon
Sep 5
First Quarter
Sep 13
Full
Sep 21
Last Quarter
Sep 28
New

Hourly Weather History & Observations

Time (CDT) Temp. Windchill Dew Point Humidity Pressure Visibility Wind Dir Wind Speed Gust Speed Precip Events Conditions
12:15 AM 48.2 °F - 44.6 °F 87% 30.08 in 10.0 mi West 4.6 mph - N/A   Unknown
12:35 AM 48.2 °F - 44.6 °F 87% 30.08 in 10.0 mi West 6.9 mph - N/A   Unknown
12:55 AM 46.4 °F 42.4 °F 42.8 °F 87% 30.08 in 10.0 mi WNW 8.1 mph - N/A   Unknown
1:15 AM 46.4 °F 44.3 °F 44.6 °F 93% 30.08 in 10.0 mi WNW 4.6 mph - N/A   Unknown
1:35 AM 46.4 °F 44.3 °F 42.8 °F 87% 30.08 in 10.0 mi West 4.6 mph - N/A   Unknown
1:55 AM 46.4 °F 43.5 °F 42.8 °F 87% 30.08 in 10.0 mi West 5.8 mph - N/A   Unknown
2:35 AM 44.6 °F 41.4 °F 42.8 °F 93% 30.09 in 10.0 mi West 5.8 mph - N/A   Unknown
2:55 AM 44.6 °F 42.2 °F 42.8 °F 93% 30.08 in 10.0 mi West 4.6 mph - N/A   Unknown
3:15 AM 44.6 °F 41.4 °F 42.8 °F 93% 30.09 in 10.0 mi West 5.8 mph - N/A   Unknown
3:35 AM 44.6 °F 42.2 °F 42.8 °F 93% 30.09 in 10.0 mi West 4.6 mph - N/A   Unknown
3:55 AM 44.6 °F 42.2 °F 41.0 °F 87% 30.10 in 10.0 mi West 4.6 mph - N/A   Unknown
4:15 AM 44.6 °F 42.2 °F 42.8 °F 93% 30.11 in 10.0 mi WSW 4.6 mph - N/A   Unknown
4:35 AM 44.6 °F 43.1 °F 41.0 °F 87% 30.11 in 10.0 mi West 3.5 mph - N/A   Unknown
5:15 AM 44.6 °F 42.2 °F 41.0 °F 87% 30.13 in 10.0 mi West 4.6 mph - N/A   Unknown
5:35 AM 42.8 °F 41.1 °F 41.0 °F 93% 30.15 in 10.0 mi SW 3.5 mph - N/A   Unknown
5:55 AM 44.6 °F - 41.0 °F 87% 30.16 in 10.0 mi Calm Calm - N/A   Unknown
6:15 AM 42.8 °F 41.1 °F 41.0 °F 93% 30.16 in 10.0 mi WNW 3.5 mph - N/A   Unknown
6:35 AM 44.6 °F 43.1 °F 41.0 °F 87% 30.16 in 10.0 mi WNW 3.5 mph - N/A   Unknown
6:55 AM 42.8 °F 41.1 °F 41.0 °F 93% 30.16 in 10.0 mi NNW 3.5 mph - N/A   Unknown
7:15 AM 42.8 °F 40.1 °F 41.0 °F 93% 30.17 in 10.0 mi West 4.6 mph - N/A   Unknown
7:35 AM 44.6 °F 43.1 °F 41.0 °F 87% 30.19 in 10.0 mi West 3.5 mph - N/A   Unknown
7:55 AM 46.4 °F - 42.8 °F 87% 30.19 in 10.0 mi Calm Calm - N/A   Unknown
8:15 AM 48.2 °F - 44.6 °F 87% 30.20 in 10.0 mi WSW 3.5 mph - N/A   Unknown
8:35 AM 50.0 °F - 46.4 °F 87% 30.20 in 10.0 mi Calm Calm - N/A   Unknown
8:55 AM 51.8 °F - 46.4 °F 82% 30.21 in 10.0 mi Calm Calm - N/A   Unknown
9:35 AM 55.4 °F - 46.4 °F 72% 30.20 in 10.0 mi NW 3.5 mph - N/A   Unknown
9:55 AM 59.0 °F - 46.4 °F 63% 30.21 in 10.0 mi NW 3.5 mph - N/A   Unknown
10:15 AM 59.0 °F - 48.2 °F 67% 30.21 in 10.0 mi West 3.5 mph - N/A   Unknown
10:35 AM 60.8 °F - 46.4 °F 59% 30.21 in 10.0 mi NW 4.6 mph - N/A   Unknown
10:55 AM 62.6 °F - 46.4 °F 55% 30.22 in 10.0 mi WNW 5.8 mph - N/A   Unknown
11:15 AM 64.4 °F - 46.4 °F 52% 30.22 in 10.0 mi WNW 4.6 mph - N/A   Unknown
11:35 AM 64.4 °F - 46.4 °F 52% 30.22 in 10.0 mi WNW 8.1 mph - N/A   Unknown
11:55 AM 66.2 °F - 46.4 °F 49% 30.22 in 10.0 mi North 4.6 mph - N/A   Unknown
12:15 PM 66.2 °F - 44.6 °F 46% 30.21 in 10.0 mi NW 4.6 mph - N/A   Unknown
12:35 PM 68.0 °F - 44.6 °F 43% 30.21 in 10.0 mi NNW 4.6 mph - N/A   Unknown
12:55 PM 69.8 °F - 44.6 °F 40% 30.21 in 10.0 mi NNW 10.4 mph - N/A   Unknown
1:15 PM 69.8 °F - 42.8 °F 38% 30.20 in 10.0 mi NW 8.1 mph 17.3 mph N/A   Unknown
1:35 PM 68.0 °F - 42.8 °F 40% 30.21 in 10.0 mi NNW 10.4 mph - N/A   Unknown
1:55 PM 69.8 °F - 42.8 °F 38% 30.21 in 10.0 mi NW 8.1 mph - N/A   Unknown
2:15 PM 69.8 °F - 42.8 °F 38% 30.21 in 10.0 mi NW 4.6 mph - N/A   Unknown
2:35 PM 69.8 °F - 41.0 °F 35% 30.20 in 10.0 mi WNW 4.6 mph - N/A   Unknown
2:55 PM 69.8 °F - 41.0 °F 35% 30.19 in 10.0 mi Calm Calm - N/A   Unknown
3:15 PM 69.8 °F - 42.8 °F 38% 30.19 in 10.0 mi NW 10.4 mph - N/A   Unknown
3:35 PM 69.8 °F - 42.8 °F 38% 30.19 in 10.0 mi NNW 4.6 mph - N/A   Unknown
3:55 PM 69.8 °F - 42.8 °F 38% 30.19 in 10.0 mi NNW 6.9 mph - N/A   Unknown
4:15 PM 69.8 °F - 42.8 °F 38% 30.19 in 10.0 mi NW 5.8 mph - N/A   Unknown
4:35 PM 71.6 °F - 42.8 °F 35% 30.19 in 10.0 mi NNW 9.2 mph - N/A   Unknown
4:55 PM 69.8 °F - 42.8 °F 38% 30.19 in 10.0 mi NNW 3.5 mph - N/A   Unknown
5:15 PM 69.8 °F - 42.8 °F 38% 30.18 in 10.0 mi North 5.8 mph - N/A   Unknown
5:35 PM 69.8 °F - 42.8 °F 38% 30.18 in 10.0 mi North 6.9 mph - N/A   Unknown
5:55 PM 69.8 °F - 42.8 °F 38% 30.18 in 10.0 mi North 6.9 mph - N/A   Unknown
6:15 PM 69.8 °F - 41.0 °F 35% 30.18 in 10.0 mi ENE 3.5 mph - N/A   Unknown
6:35 PM 69.8 °F - 42.8 °F 38% 30.18 in 10.0 mi NNE 5.8 mph - N/A   Unknown
6:55 PM 69.8 °F - 42.8 °F 38% 30.17 in 10.0 mi NNE 4.6 mph - N/A   Unknown
7:15 PM 68.0 °F - 44.6 °F 43% 30.17 in 10.0 mi ENE 4.6 mph - N/A   Unknown
7:35 PM 66.2 °F - 44.6 °F 46% 30.18 in 10.0 mi NE 3.5 mph - N/A   Unknown
7:55 PM 66.2 °F - 44.6 °F 46% 30.18 in 10.0 mi ENE 4.6 mph - N/A   Unknown
8:15 PM 62.6 °F - 46.4 °F 55% 30.19 in 10.0 mi East 4.6 mph - N/A   Unknown
8:35 PM 62.6 °F - 46.4 °F 55% 30.19 in 10.0 mi East 4.6 mph - N/A   Unknown
8:55 PM 60.8 °F - 46.4 °F 59% 30.20 in 10.0 mi ENE 4.6 mph - N/A   Unknown
9:35 PM 60.8 °F - 46.4 °F 59% 30.21 in 10.0 mi East 4.6 mph - N/A   Unknown
9:55 PM 60.8 °F - 46.4 °F 59% 30.21 in 10.0 mi East 4.6 mph - N/A   Unknown
10:15 PM 59.0 °F - 46.4 °F 63% 30.22 in 10.0 mi East 4.6 mph - N/A   Unknown
10:35 PM 59.0 °F - 46.4 °F 63% 30.23 in 10.0 mi ESE 3.5 mph - N/A   Unknown
10:55 PM 59.0 °F - 48.2 °F 67% 30.24 in 10.0 mi SE 4.6 mph - N/A   Unknown
11:15 PM 59.0 °F - 46.4 °F 63% 30.25 in 10.0 mi SE 3.5 mph - N/A   Unknown
11:35 PM 59.0 °F - 48.2 °F 67% 30.25 in 10.0 mi SE 4.6 mph - N/A   Unknown
11:55 PM 57.2 °F - 48.2 °F 72% 30.25 in 10.0 mi SE 4.6 mph - N/A   Unknown